Location: Ferchesar
(52.6477°N, 12.4298°E)
Time: 12:10:35
(UTC+01:00)

Transit 4A - Visible Passes

Search period start: 01 March 2021 00:00
Search period end: 11 March 2021 00:00
Orbit: 866 x 978 km, 66.8° (Epoch: 01 March)

Date Brightness Start Highest point End Pass type
(mag) Time Alt. Az. Time Alt. Az. Time Alt. Az.
01 Mar 7.9 19:05:43 10° NW 19:11:52 90° ENE 19:17:48 10° SE visible
01 Mar 9.9 20:53:02 10° WNW 20:57:27 22° WSW 21:01:47 10° SSW visible
02 Mar 8.1 19:15:05 10° NW 19:21:09 69° WSW 19:27:01 10° SSE visible
02 Mar 10.3 21:03:10 10° WNW 21:06:24 15° WSW 21:09:36 10° SW visible
03 Mar 8.7 19:24:31 10° NW 19:30:22 51° WSW 19:36:02 10° SSE visible
04 Mar 9.3 19:34:02 10° NW 19:39:31 37° WSW 19:44:51 10° S visible
05 Mar 9.8 19:43:40 10° NW 19:48:35 27° WSW 19:53:24 10° SSW visible
06 Mar 10.4 19:53:32 10° WNW 19:57:35 19° WSW 20:01:33 10° SSW visible
07 Mar 10.6 20:03:57 10° WNW 20:06:30 13° W 20:09:03 10° SW visible
09 Mar 9.8 18:34:23 10° NW 18:39:41 33° WSW 18:44:50 10° S visible
10 Mar 10.4 18:44:06 10° WNW 18:48:43 24° WSW 18:53:16 10° SSW visible
